Regional Weather Roundup
Issued by NWS

Home | Current Version | Previous Version | Text Only | Print | Product List | Glossary On
Versions: 1 2 3 4 5 6 7 8 9 10 11 12 13 14 15 16 17 18 19 20 21 22 23 24 25 26 27 28 29 30 31 32 33 34 35 36 37 38 39 40 41 42 43 44 45 46 47 48 49 50
000
ASUS43 KLMK 261610
RWRKY
KENTUCKY REGIONAL WEATHER ROUNDUP
NATIONAL WEATHER SERVICE LOUISVILLE KY
1100 AM EST SUN FEB 26 2017

NOTE "FAIR" INDICATES FEW OR NO CLOUDS BELOW 12,000 FEET
WITH NO SIGNIFICANT WEATHER AND/OR OBSTRUCTIONS TO VISIBILITY.

KYZ001>023-026-027-061>063-070>075-261700-
WESTERN AND SOUTH CENTRAL KENTUCKY

CITY           SKY/WX    TMP DP  RH WIND       PRES   REMARKS
PADUCAH        SUNNY     43  20  39 SE12      30.21S
HENDERSON      SUNNY     39  18  41 SE12      30.22F WCI  32
OWENSBORO      SUNNY     39  18  42 S13       30.24F WCI  31
HOPKINSVILLE   SUNNY     42  17  36 SE9       30.22F
BOWLING GREEN  SUNNY     41  17  38 S6        30.26S
GLASGOW        SUNNY     40  15  36 S3        30.25S
$$

KYZ024-025-028>034-038-045-046-053-261700-
NORTH CENTRAL KENTUCKY

CITY           SKY/WX    TMP DP  RH WIND       PRES   REMARKS
LOUISVILLE/SDF MOSUNNY   38  14  37 S7        30.24S WCI  33
LOUISVILLE/LOU SUNNY     38  16  40 S6        30.25S WCI  33
FORT KNOX      SUNNY     37  17  43 SE6       30.22R WCI  33
$$

KYZ035>037-039>044-047>052-055>060-089>105-261700-
NORTHEAST KENTUCKY

CITY           SKY/WX    TMP DP  RH WIND       PRES   REMARKS
LEXINGTON      SUNNY     35  12  38 S3        30.24R
COVINGTON      SUNNY     34  16  47 SW7       30.22S WCI  28
FRANKFORT      SUNNY     37  14  38 S5        30.23S WCI  33
$$

KYZ054-064>069-076>088-106>120-261700-
SOUTHEAST KENTUCKY

CITY           SKY/WX    TMP DP  RH WIND       PRES   REMARKS
JACKSON        SUNNY     36  16  44 CALM      30.23R
LONDON         SUNNY     35  15  44 VRB3      30.25R
SOMERSET       SUNNY     36  19  51 CALM      30.27S
MIDDLESBORO    SUNNY     38  19  46 CALM      30.26S
MONTICELLO     SUNNY     38  21  50 VRB7      30.26F WCI  33
$$




USA.gov is the U.S. government's official web portal to all federal, state and local government web resources and services.